NC4TP Weather Reports


time (UTC)temp
C
wind
direction
speed
KPH
gust
KPH
rain 1hr
cm
rain 24hr
cm
rain mn
cm
humidity
%
barometer
mb
20260509002334 15 302 0.0 0.0 0.00 0.00 0.00 81 1009.1
20260509001851 15 302 0.0 0.0 0.00 0.00 0.00 80 1009.2
20260509001353 15 302 0.0 0.0 0.00 0.00 0.00 79 1009.2
20260509000854 16 302 0.0 0.0 0.00 0.00 0.00 79 1009.2
20260509000355 16 302 0.0 0.0 0.00 0.00 0.00 79 1009.2
20260508235853 16 302 0.0 0.0 0.00 0.00 0.00 79 1009.1
20260508235415 16 302 0.0 0.0 0.00 0.00 0.00 78 1009.1
20260508234835 16 302 0.0 0.0 0.00 0.00 0.00 78 1009.1
20260508234338 16 302 0.0 0.0 0.00 0.00 0.00 77 1009.1
20260508233841 16 302 0.0 0.0 0.00 0.00 0.00 76 1009.0
20260508233402 16 302 0.0 0.0 0.00 0.00 0.00 75 1008.9
20260508232841 16 302 0.0 0.0 0.00 0.00 0.00 76 1009.1
20260508232359 16 302 0.0 1.6 0.00 0.00 0.00 73 1009.2
20260508231839 17 313 0.0 0.0 0.00 0.00 0.00 74 1009.2
20260508231342 17 313 0.0 0.0 0.00 0.00 0.00 73 1009.2
20260508230843 17 313 0.0 0.0 0.00 0.00 0.00 71 1009.1
20260508230345 17 313 0.0 0.0 0.00 0.00 0.00 68 1009.0
20260508225903 17 313 0.0 0.0 0.00 0.00 0.00 66 1009.1
20260508225346 17 313 0.0 0.0 0.00 0.00 0.00 65 1009.0
20260508224846 17 313 0.0 0.0 0.00 0.00 0.00 63 1008.9
20260508224346 18 313 0.0 0.0 0.00 0.00 0.00 61 1008.9
20260508223850 18 313 0.0 0.0 0.00 0.00 0.00 61 1008.8
20260508223406 18 313 0.0 0.0 0.00 0.00 0.00 60 1008.7
20260508222843 18 313 0.0 0.0 0.00 0.00 0.00 60 1008.8
20260508222344 18 313 0.0 0.0 0.00 0.00 0.00 60 1008.8
20260508221845 18 313 0.0 0.0 0.00 0.00 0.00 59 1008.8
20260508221343 18 315 0.0 0.0 0.00 0.00 0.00 59 1008.8
20260508220843 18 315 0.0 0.0 0.00 0.00 0.00 58 1008.8
20260508220345 18 315 0.0 0.0 0.00 0.00 0.00 57 1008.8
20260508215903 18 315 0.0 0.0 0.00 0.00 0.00 57 1008.8
20260508215345 18 315 0.0 0.0 0.00 0.00 0.00 56 1008.7
20260508214906 19 281 0.0 0.0 0.00 0.00 0.00 53 1008.8
20260508214341 19 281 0.0 0.0 0.00 0.00 0.00 53 1008.8
20260508213843 19 302 0.0 0.0 0.00 0.00 0.00 54 1008.8
20260508213344 19 302 0.0 0.0 0.00 0.00 0.00 50 1008.8
20260508212843 19 302 0.0 0.0 0.00 0.00 0.00 49 1008.8
20260508212345 19 332 0.0 0.0 0.00 0.00 0.00 57 1008.9
20260508211848 19 11 0.0 0.0 0.00 0.00 0.00 51 1009.0
20260508211409 19 264 0.0 0.0 0.00 0.00 0.00 52 1009.0
20260508210850 19 263 0.0 0.0 0.00 0.00 0.00 53 1009.0
20260508210352 19 263 0.0 0.0 0.00 0.00 0.00 54 1009.1
20260508205850 19 291 0.0 0.0 0.00 0.00 0.00 50 1009.1
20260508205350 19 313 0.0 0.0 0.00 0.00 0.00 48 1009.3
20260508204851 19 269 0.0 0.0 0.00 0.00 0.00 49 1009.5
20260508204410 19 248 0.0 6.4 0.00 0.00 0.00 47 1009.6
20260508203851 20 281 0.0 6.4 0.00 0.00 0.00 49 1009.6
20260508203350 20 115 0.0 3.2 0.00 0.00 0.00 48 1009.8
20260508202848 20 294 0.0 3.2 0.00 0.00 0.00 46 1009.8
20260508202352 20 317 0.0 1.6 0.00 0.00 0.00 52 1009.9
20260508201853 20 270 0.0 0.0 0.00 0.00 0.00 48 1009.9
20260508201334 20 309 0.0 1.6 0.00 0.00 0.00 47 1009.9
20260508200837 20 291 0.0 1.6 0.00 0.00 0.00 46 1010.0
20260508200339 20 280 0.0 1.6 0.00 0.00 0.00 48 1010.0
20260508195839 20 296 0.0 1.6 0.00 0.00 0.00 44 1009.9
20260508195342 20 250 0.0 1.6 0.00 0.00 0.00 43 1010.0
20260508194843 20 350 0.0 8.0 0.00 0.00 0.00 45 1010.1
20260508194347 21 165 0.0 0.0 0.00 0.00 0.00 43 1010.2
20260508193842 21 317 0.0 0.0 0.00 0.00 0.00 44 1010.2
20260508193343 21 298 0.0 1.6 0.00 0.00 0.00 41 1010.2
20260508192843 21 212 0.0 1.6 0.00 0.00 0.00 39 1010.2
20260508192346 22 304 0.0 1.6 0.00 0.00 0.00 43 1010.1
20260508191846 22 305 0.0 1.6 0.00 0.00 0.00 41 1010.2
20260508191348 22 283 0.0 1.6 0.00 0.00 0.00 41 1010.3
20260508190908 22 291 0.0 6.4 0.00 0.00 0.00 43 1010.4
20260508190349 22 273 0.0 6.4 0.00 0.00 0.00 42 1010.4
20260508185849 22 297 0.0 11.3 0.00 0.00 0.00 44 1010.5
20260508185351 22 286 0.0 0.0 0.00 0.00 0.00 44 1010.5
20260508184852 22 142 0.0 1.6 0.00 0.00 0.00 42 1010.7
20260508184334 22 284 0.0 8.0 0.00 0.00 0.00 43 1010.9
20260508183853 22 178 0.0 12.9 0.00 0.00 0.00 42 1011.0
20260508183335 22 216 0.0 17.7 0.00 0.00 0.00 42 1011.1
20260508182914 21 319 1.6 17.7 0.00 0.00 0.00 46 1011.0
20260508182355 21 232 0.0 11.3 0.00 0.00 0.00 46 1011.1
20260508181834 21 294 0.0 0.0 0.00 0.00 0.00 47 1011.2
20260508181335 20 327 0.0 1.6 0.00 0.00 0.00 45 1011.3
20260508180836 20 284 0.0 8.0 0.00 0.00 0.00 47 1011.4
20260508180358 20 309 0.0 6.4 0.00 0.00 0.00 47 1011.5
20260508175915 20 267 0.0 1.6 0.00 0.00 0.00 46 1011.6
20260508175335 20 123 0.0 0.0 0.00 0.00 0.00 47 1011.7
20260508174855 20 286 0.0 0.0 0.00 0.00 0.00 47 1011.7
20260508174354 20 277 0.0 0.0 0.00 0.00 0.00 48 1011.8
20260508173855 20 275 0.0 0.0 0.00 0.00 0.00 49 1011.9
20260508173335 20 171 0.0 1.6 0.00 0.00 0.00 47 1012.0
20260508172856 20 288 0.0 1.6 0.00 0.00 0.00 46 1012.2
20260508172336 20 187 0.0 0.0 0.00 0.00 0.00 46 1012.2
20260508171838 20 289 0.0 1.6 0.00 0.00 0.00 50 1012.3
20260508171341 20 196 0.0 1.6 0.00 0.00 0.00 46 1012.3
20260508170841 21 144 0.0 1.6 0.00 0.00 0.00 47 1012.4
20260508170343 21 292 0.0 11.3 0.00 0.00 0.00 47 1012.4
20260508165842 21 300 1.6 11.3 0.00 0.00 0.00 46 1012.4
20260508165343 21 222 0.0 1.6 0.00 0.00 0.00 47 1012.5
20260508164842 21 295 0.0 3.2 0.00 0.00 0.00 47 1012.7
20260508164345 21 273 0.0 3.2 0.00 0.00 0.00 47 1012.8
20260508163845 21 254 0.0 9.7 0.00 0.00 0.00 45 1012.9
20260508163407 21 271 1.6 9.7 0.00 0.00 0.00 47 1012.9
20260508162845 21 230 0.0 1.6 0.00 0.00 0.00 47 1013.0
20260508162346 20 136 0.0 1.6 0.00 0.00 0.00 50 1013.1
20260508161848 20 279 0.0 1.6 0.00 0.00 0.00 50 1013.1
20260508161411 20 248 0.0 1.6 0.00 0.00 0.00 55 1013.1
20260508160851 20 327 0.0 1.6 0.00 0.00 0.00 49 1013.1
20260508160354 20 269 0.0 8.0 0.00 0.00 0.00 52 1013.1
20260508155851 19 298 0.0 8.0 0.00 0.00 0.00 50 1013.3
20260508155350 19 283 0.0 3.2 0.00 0.00 0.00 50 1013.3
20260508154911 19 209 0.0 3.2 0.00 0.00 0.00 52 1013.4
20260508154350 19 254 0.0 1.6 0.00 0.00 0.00 53 1013.5
20260508153910 18 219 0.0 1.6 0.00 0.00 0.00 52 1013.6
20260508153352 18 307 0.0 9.7 0.00 0.00 0.00 53 1013.6
20260508152851 18 285 0.0 1.6 0.00 0.00 0.00 52 1013.6
20260508152353 18 313 0.0 1.6 0.00 0.00 0.00 51 1013.7
20260508151854 18 317 0.0 6.4 0.00 0.00 0.00 53 1013.8
20260508151412 18 311 0.0 6.4 0.00 0.00 0.00 52 1013.7
20260508150852 18 317 0.0 0.0 0.00 0.00 0.00 55 1013.8
20260508150350 18 78 0.0 1.6 0.00 0.00 0.00 52 1013.9
20260508145908 18 240 0.0 1.6 0.00 0.00 0.00 52 1013.8
20260508145348 17 309 0.0 6.4 0.00 0.00 0.00 53 1013.8
20260508144850 17 284 0.0 6.4 0.00 0.00 0.00 56 1013.9
20260508144355 17 179 0.0 1.6 0.00 0.00 0.00 54 1013.9
20260508143854 17 317 0.0 1.6 0.00 0.00 0.00 54 1013.9
20260508143355 17 296 0.0 11.3 0.00 0.00 0.00 56 1014.0
20260508142913 16 221 0.0 11.3 0.00 0.00 0.00 53 1014.1
20260508142414 16 286 0.0 8.0 0.00 0.00 0.00 53 1014.1
20260508141912 16 294 0.0 1.6 0.00 0.00 0.00 55 1014.1
20260508141351 16 199 0.0 1.6 0.00 0.00 0.00 54 1014.2
20260508140853 16 279 0.0 0.0 0.00 0.00 0.00 55 1014.4
20260508140355 15 257 0.0 1.6 0.00 0.00 0.00 57 1014.4
20260508135853 15 319 0.0 1.6 0.00 0.00 0.00 55 1014.3
20260508135334 15 284 0.0 8.0 0.00 0.00 0.00 56 1014.3
20260508134838 15 102 0.0 8.0 0.00 0.00 0.00 55 1014.4
20260508134340 15 201 0.0 1.6 0.00 0.00 0.00 57 1014.3
20260508133841 15 286 0.0 1.6 0.00 0.00 0.00 58 1014.3
20260508133343 15 242 0.0 1.6 0.00 0.00 0.00 57 1014.3
20260508132902 14 263 0.0 1.6 0.00 0.00 0.00 56 1014.2
20260508132342 14 340 0.0 1.6 0.00 0.00 0.00 57 1014.2
20260508131845 14 355 0.0 1.6 0.00 0.00 0.00 58 1014.4
20260508131343 14 342 0.0 0.0 0.00 0.00 0.00 60 1014.4
20260508130845 13 218 0.0 0.0 0.00 0.00 0.00 61 1014.2
20260508130405 13 276 0.0 3.2 0.00 0.00 0.00 62 1014.3
20260508125843 13 313 0.0 3.2 0.00 0.00 0.00 60 1014.4
20260508125347 13 311 0.0 0.0 0.00 0.00 0.00 61 1014.3
20260508124848 13 321 0.0 0.0 0.00 0.00 0.00 63 1014.3
20260508124349 13 279 0.0 0.0 0.00 0.00 0.00 64 1014.2
20260508123850 12 308 0.0 1.6 0.00 0.00 0.00 64 1014.2
20260508123352 12 282 0.0 1.6 0.00 0.00 0.00 64 1014.2
20260508122850 12 293 0.0 1.6 0.00 0.00 0.00 67 1014.2
20260508122407 11 271 0.0 1.6 0.00 0.00 0.00 66 1014.1
20260508121847 11 316 0.0 1.6 0.00 0.00 0.00 69 1014.2
20260508121349 11 263 0.0 1.6 0.00 0.00 0.00 67 1014.2
20260508120852 10 279 0.0 3.2 0.00 0.00 0.00 70 1014.2
20260508120352 10 311 0.0 3.2 0.00 0.00 0.00 71 1014.1
20260508115852 10 183 0.0 0.0 0.00 0.00 0.00 72 1014.1
20260508115353 10 231 0.0 0.0 0.00 0.00 0.00 74 1014.1
20260508114854 9 309 0.0 0.0 0.00 0.00 0.00 75 1014.1
20260508114335 9 259 0.0 0.0 0.00 0.00 0.00 75 1014.0
20260508113836 8 246 0.0 0.0 0.00 0.00 0.00 76 1014.0
20260508113337 8 270 0.0 0.0 0.00 0.00 0.00 77 1014.0
20260508112835 8 270 0.0 0.0 0.00 0.00 0.00 77 1013.9
20260508112335 8 261 0.0 0.0 0.00 0.00 0.00 78 1013.9
20260508111839 8 261 0.0 0.0 0.00 0.00 0.00 80 1013.9
20260508111356 8 261 0.0 0.0 0.00 0.00 0.00 80 1013.8
20260508110858 7 216 0.0 0.0 0.00 0.00 0.00 82 1013.7
20260508110338 7 216 0.0 0.0 0.00 0.00 0.00 82 1013.6
20260508105837 7 289 0.0 0.0 0.00 0.00 0.00 84 1013.5
20260508105341 7 294 0.0 0.0 0.00 0.00 0.00 86 1013.5
20260508104904 7 222 0.0 0.0 0.00 0.00 0.00 88 1013.6
20260508104346 7 222 0.0 0.0 0.00 0.00 0.00 89 1013.7
20260508103848 7 222 0.0 0.0 0.00 0.00 0.00 90 1013.7
20260508103410 6 222 0.0 0.0 0.00 0.00 0.00 90 1013.8
20260508102844 6 222 0.0 0.0 0.00 0.00 0.00 90 1013.8
20260508102346 6 222 0.0 0.0 0.00 0.00 0.00 91 1013.8
20260508101846 6 222 0.0 0.0 0.00 0.00 0.00 91 1013.8
20260508101349 6 222 0.0 0.0 0.00 0.00 0.00 91 1013.8
20260508100851 6 222 0.0 0.0 0.00 0.00 0.00 91 1013.8
20260508100352 6 222 0.0 0.0 0.00 0.00 0.00 91 1013.8
20260508095852 6 222 0.0 0.0 0.00 0.00 0.00 91 1013.8
20260508095354 6 222 0.0 0.0 0.00 0.00 0.00 91 1013.7
20260508094856 6 222 0.0 0.0 0.00 0.00 0.00 91 1013.8
20260508094336 6 222 0.0 0.0 0.00 0.00 0.00 91 1013.8
20260508093838 6 222 0.0 0.0 0.00 0.00 0.00 91 1013.8
20260508093341 6 222 0.0 0.0 0.00 0.00 0.00 91 1013.9
20260508092839 6 222 0.0 0.0 0.00 0.00 0.00 91 1013.9
20260508092342 6 222 0.0 0.0 0.00 0.00 0.00 91 1013.9
20260508091839 6 222 0.0 0.0 0.00 0.00 0.00 91 1013.9
20260508091400 6 222 0.0 0.0 0.00 0.00 0.00 91 1013.9
20260508090840 6 222 0.0 0.0 0.00 0.00 0.00 91 1013.8
20260508090342 6 222 0.0 0.0 0.00 0.00 0.00 91 1013.8
20260508085842 6 222 0.0 0.0 0.00 0.00 0.00 91 1013.9
20260508085405 6 222 0.0 0.0 0.00 0.00 0.00 91 1014.0
20260508084846 6 222 0.0 0.0 0.00 0.00 0.00 91 1013.9
20260508084347 6 222 0.0 0.0 0.00 0.00 0.00 91 1013.9
20260508083848 6 222 0.0 0.0 0.00 0.00 0.00 91 1014.0
20260508083351 5 222 0.0 0.0 0.00 0.00 0.00 91 1014.0
20260508082846 5 222 0.0 0.0 0.00 0.00 0.00 90 1013.9
20260508082408 5 222 0.0 0.0 0.00 0.00 0.00 90 1013.8
20260508081849 5 222 0.0 0.0 0.00 0.00 0.00 90 1013.7
20260508081350 5 222 0.0 0.0 0.00 0.00 0.00 89 1013.7
20260508080850 5 222 0.0 0.0 0.00 0.00 0.00 89 1013.7
20260508080411 5 222 0.0 0.0 0.00 0.00 0.00 89 1013.7
20260508075848 5 222 0.0 0.0 0.00 0.00 0.00 89 1013.6
20260508075351 5 222 0.0 0.0 0.00 0.00 0.00 88 1013.6
20260508074854 5 222 0.0 0.0 0.00 0.00 0.00 88 1013.6
20260508074416 5 222 0.0 0.0 0.00 0.00 0.00 88 1013.6
20260508073835 5 222 0.0 0.0 0.00 0.00 0.00 87 1013.6
20260508073353 5 222 0.0 0.0 0.00 0.00 0.00 87 1013.7
20260508072854 5 222 0.0 0.0 0.00 0.00 0.00 87 1013.6
20260508072354 5 222 0.0 0.0 0.00 0.00 0.00 87 1013.5
20260508071854 5 222 0.0 0.0 0.00 0.00 0.00 86 1013.7
20260508071335 6 222 0.0 0.0 0.00 0.00 0.00 86 1013.7
20260508070837 6 222 0.0 0.0 0.00 0.00 0.00 86 1013.7
20260508070400 6 222 0.0 0.0 0.00 0.00 0.00 86 1013.8
20260508065917 6 222 0.0 0.0 0.00 0.00 0.00 86 1013.8
20260508065336 6 222 0.0 0.0 0.00 0.00 0.00 85 1013.8
20260508064838 6 222 0.0 0.0 0.00 0.00 0.00 85 1013.9
20260508064336 6 222 0.0 0.0 0.00 0.00 0.00 84 1013.9
20260508063838 6 222 0.0 0.0 0.00 0.00 0.00 84 1014.1
20260508063340 6 222 0.0 0.0 0.00 0.00 0.00 83 1014.2
20260508062840 6 222 0.0 0.0 0.00 0.00 0.00 83 1014.2
20260508062342 6 222 0.0 0.0 0.00 0.00 0.00 83 1014.3
20260508061843 6 222 0.0 0.0 0.00 0.00 0.00 83 1014.4
20260508061345 6 222 0.0 0.0 0.00 0.00 0.00 83 1014.4
20260508060848 6 222 0.0 0.0 0.00 0.00 0.00 83 1014.3
20260508060348 6 222 0.0 0.0 0.00 0.00 0.00 83 1014.4
20260508055847 6 222 0.0 0.0 0.00 0.00 0.00 82 1014.3
20260508055349 6 222 0.0 0.0 0.00 0.00 0.00 82 1014.3
20260508054853 6 222 0.0 0.0 0.00 0.00 0.00 82 1014.3
20260508054410 6 222 0.0 0.0 0.00 0.00 0.00 82 1014.3
20260508053851 6 222 0.0 0.0 0.00 0.00 0.00 82 1014.5
20260508053354 6 222 0.0 0.0 0.00 0.00 0.00 82 1014.4
20260508052851 6 222 0.0 0.0 0.00 0.00 0.00 82 1014.4
20260508052353 6 222 0.0 0.0 0.00 0.00 0.00 82 1014.5
20260508051855 6 222 0.0 0.0 0.00 0.00 0.00 81 1014.4
20260508051338 6 222 0.0 0.0 0.00 0.00 0.00 81 1014.4
20260508050900 6 222 0.0 0.0 0.00 0.00 0.00 81 1014.4
20260508050342 6 222 0.0 0.0 0.00 0.00 0.00 81 1014.3
20260508045842 6 222 0.0 0.0 0.00 0.00 0.00 81 1014.2
20260508045400 7 222 0.0 0.0 0.00 0.00 0.00 81 1014.2
20260508044858 7 222 0.0 0.0 0.00 0.00 0.00 81 1014.3
20260508044339 7 222 0.0 0.0 0.00 0.00 0.00 81 1014.3
20260508043840 7 222 0.0 0.0 0.00 0.00 0.00 82 1014.2
20260508043342 7 222 0.0 0.0 0.00 0.00 0.00 82 1014.2
20260508042840 7 300 0.0 0.0 0.00 0.00 0.00 82 1014.2
20260508042403 7 263 0.0 0.0 0.00 0.00 0.00 81 1014.1
20260508041845 7 263 0.0 0.0 0.00 0.00 0.00 82 1014.1
20260508041409 7 263 0.0 0.0 0.00 0.00 0.00 82 1014.2
20260508040850 7 263 0.0 0.0 0.00 0.00 0.00 82 1014.2
20260508040350 7 263 0.0 0.0 0.00 0.00 0.00 82 1014.2
20260508035844 7 263 0.0 0.0 0.00 0.00 0.00 81 1014.1
20260508035347 7 263 0.0 0.0 0.00 0.00 0.00 80 1014.0
20260508034848 7 263 0.0 0.0 0.00 0.00 0.00 79 1014.0
20260508034350 7 263 0.0 0.0 0.00 0.00 0.00 79 1014.1
20260508033853 7 263 0.0 0.0 0.00 0.00 0.00 80 1014.1
20260508033354 8 263 0.0 0.0 0.00 0.00 0.00 80 1014.1
20260508032853 8 263 0.0 0.0 0.00 0.00 0.00 80 1014.1
20260508032337 8 263 0.0 0.0 0.00 0.00 0.00 79 1014.2
20260508031838 8 263 0.0 0.0 0.00 0.00 0.00 78 1014.1
20260508031341 8 263 0.0 0.0 0.00 0.00 0.00 77 1014.1
20260508030844 8 263 0.0 0.0 0.00 0.00 0.00 77 1014.1
20260508030344 8 263 0.0 0.0 0.00 0.00 0.00 78 1014.0
20260508025843 8 263 0.0 0.0 0.00 0.00 0.00 76 1014.0
20260508025343 8 263 0.0 0.0 0.00 0.00 0.00 76 1013.9
20260508024842 8 263 0.0 0.0 0.00 0.00 0.00 76 1013.9
20260508024345 8 263 0.0 0.0 0.00 0.00 0.00 77 1014.0
20260508023848 8 263 0.0 0.0 0.00 0.00 0.00 78 1014.1
20260508023411 8 263 0.0 0.0 0.00 0.00 0.00 77 1014.2
20260508022849 8 263 0.0 0.0 0.00 0.00 0.00 78 1014.2
20260508022349 8 263 0.0 0.0 0.00 0.00 0.00 75 1014.1
20260508021851 8 263 0.0 0.0 0.00 0.00 0.00 73 1014.0
20260508021412 8 263 0.0 0.0 0.00 0.00 0.00 73 1013.9
20260508020853 8 263 0.0 0.0 0.00 0.00 0.00 73 1013.9
20260508020355 8 263 0.0 0.0 0.00 0.00 0.00 72 1013.9
20260508015854 8 263 0.0 0.0 0.00 0.00 0.00 71 1014.0
20260508015335 9 263 0.0 0.0 0.00 0.00 0.00 71 1013.9
20260508014854 9 263 0.0 0.0 0.00 0.00 0.00 71 1013.8
20260508014354 9 263 0.0 0.0 0.00 0.00 0.00 71 1013.9
20260508013853 9 263 0.0 0.0 0.00 0.00 0.00 70 1013.9
20260508013355 9 263 0.0 0.0 0.00 0.00 0.00 70 1013.9
20260508012854 10 263 0.0 0.0 0.00 0.00 0.00 70 1013.9
20260508012356 10 263 0.0 0.0 0.00 0.00 0.00 71 1013.9
20260508011837 10 263 0.0 0.0 0.00 0.00 0.00 68 1014.0
20260508011338 10 263 0.0 0.0 0.00 0.00 0.00 68 1013.9
20260508010840 10 263 0.0 0.0 0.00 0.00 0.00 69 1013.9
20260508010342 11 263 0.0 0.0 0.00 0.00 0.00 70 1013.9
20260508005843 11 263 0.0 0.0 0.00 0.00 0.00 70 1013.9
20260508005343 11 263 0.0 0.0 0.00 0.00 0.00 70 1013.9
20260508004837 11 263 0.0 0.0 0.00 0.00 0.00 68 1013.9
20260508004357 12 263 0.0 0.0 0.00 0.00 0.00 68 1013.8
20260508003859 12 263 0.0 0.0 0.00 0.00 0.00 68 1013.7
20260508003340 12 263 0.0 0.0 0.00 0.00 0.00 66 1013.7
20260508002839 12 263 0.0 0.0 0.00 0.00 0.00 64 1013.7